Погода в Сан-Жозе-ду-Риу-Прету

Бразилия     20°48′35″S   49°23′08″W
темп.,
°C
ветер,
м/с
пор.,
м/с
влажн.,
%
обл.,
%
осадки,
мм/ч
давл.,
гПа
погр.,
м
1 марта, пн
пн100:00+21св2578100 0.3 1012155
03:00+20всв357899 0.3 1010150
06:00+20в237999 0.0 101198
09:00+21всв368199 0.0 1013244
12:00+26св577092 1.1 10121063
15:00+28св356283 1.3 10091322
18:00+25всв247788 0.6 1008158
21:00+22в238583 0.6 101158
2 марта, вт
вт200:00+21в349057 0.6 101292
03:00+20всв349360 0.6 1011114
06:00+19всв379643 0.0 1012210
09:00+24всв588146 0.1 1014582
12:00+28ссв576229 1.3 10131198
15:00+29св455735 1.3 10101374
18:00+25ссв377952 0.8 1010253
21:00+23св368276 0.8 1013153
3 марта, ср
ср300:00+21всв358699 0.0 1014133
03:00+20св3108899 0.0 1014313
06:00+19св3784100 0.0 1015176
09:00+23ссв367395 0.0 1017487
12:00+27ссв466099 0.0 10161403
15:00+29ссв455489 0.0 10131629
18:00+25с3671100 0.0 1012236
21:00+22ссз1279100 0.1 101423
4 марта, чт
чт400:00+22ссв1179100 0.3 101423
03:00+21всв2290100 2.3 101341
06:00+20всв2389100 0.6 101484
09:00+22с3586100 2.6 1016281
12:00+26сз457580 2.8 1015955
15:00+26ссз357286 3.9 1012905
18:00+23с358685 3.4 1010175
21:00+22с129092 4.3 101224
5 марта, пт
пт500:00+21зюз1192100 1.4 101225
03:00+20всв2296100 2.6 101154
06:00+20всв2597100 0.8 1011161
09:00+22с578890 1.4 1013477
12:00+25ссз687685 2.3 1011924
15:00+26зсз797980 6.5 10101139
18:00+23з369094 4.1 1008411
21:00+21ссз239697 5.3 101066